Location: The Jewett Observatory
(46.7288°N, 117.1525°W)
Time: 08:43:39
(UTC-07:00)

Amateur Radio Satellites - All Passes

Search period start: 31 October 2014 08:13
Search period end: 01 November 2014 08:13
Location: The Jewett Observatory, 46.7288°N, 117.1525°W

Satellite Date Start Highest point End Downlink Frequencies (MHz)
Time Altitude Azimuth
STRAND 1 31 Oct 08:13:57 08:17:07 16° 271° (W) 08:20:17 ?
MaSat-1 31 Oct 08:21:13 08:22:42 15° 252° (WSW) 08:24:09 437.345 MHz
HO-68 31 Oct 08:25:29 08:30:05 18° 88° (E) 08:34:38 435.675 MHz FM
PCSat 31 Oct 08:28:54 08:30:19 11° 19° (NNE) 08:31:44 145.825 MHz
Saudisat 1A 31 Oct 08:43:51 08:46:01 13° 335° (NNW) 08:48:11 436.775 MHz
RS-15 31 Oct 08:46:38 08:53:42 19° 262° (W) 09:00:58 29.354 - 29.394 USB, Beacon 29.352 USB
JAS-2 31 Oct 08:58:02 09:02:22 16° 312° (NW) 09:06:42 435.800 - 435.900 CW/SSB, 435.910 FM
SO-67 31 Oct 08:58:34 09:01:07 20° 293° (WNW) 09:03:40 435.3500 MHz FM
KITSAT 1 31 Oct 09:37:47 09:43:09 20° 102° (ESE) 09:48:31 435.175 FM
Sapphire 31 Oct 09:49:13 09:53:31 23° 38° (NE) 09:57:47 437.095 MHz 1200 baud AX-25 AFSK
UKube-1 31 Oct 10:05:42 10:09:42 34° 97° (E) 10:13:40 145.840 MHz, 145.915 MHz
PCSat 31 Oct 10:10:43 10:15:34 31° 43° (NE) 10:20:22 145.825 MHz
HO-68 31 Oct 10:11:32 10:18:47 86° 107° (ESE) 10:25:59 435.675 MHz FM
ZACube-1 31 Oct 10:15:08 10:18:08 19° 92° (E) 10:21:06 437.345 MHz
Oscar 11 31 Oct 10:40:33 10:44:53 79° 103° (ESE) 10:49:12 145.825 FM, Beacon 2401.500 USB
ISS 31 Oct 10:47:52 10:51:05 50° 147° (SSE) 10:54:20 145.800 FM
SO-50 31 Oct 10:50:58 10:54:50 29° 115° (ESE) 10:58:49 436.795 FM
FUNcube-1 31 Oct 10:57:15 11:01:22 51° 100° (E) 11:05:24 145.950 - 145.970 MHz USB
KITSAT 1 31 Oct 11:29:18 11:37:23 84° 122° (ESE) 11:45:30 435.175 FM
Sapphire 31 Oct 11:32:08 11:37:36 82° 239° (WSW) 11:43:02 437.095 MHz 1200 baud AX-25 AFSK
JAS-1B 31 Oct 11:40:36 11:43:26 14° 51° (NE) 11:46:19 435.800 - 435.900 CW/SSB
UKube-1 31 Oct 11:42:06 11:45:47 27° 295° (WNW) 11:49:26 145.840 MHz, 145.915 MHz
ZACube-1 31 Oct 11:50:46 11:54:47 43° 290° (WNW) 11:58:43 437.345 MHz
PCSat 31 Oct 11:53:58 11:59:15 53° 244° (WSW) 12:04:29 145.825 MHz
HO-68 31 Oct 12:00:18 12:05:41 24° 308° (NW) 12:11:03 435.675 MHz FM
Saudisat 1A 31 Oct 12:07:18 12:09:17 13° 24° (NNE) 12:11:16 436.775 MHz
Oscar 16 31 Oct 12:12:58 12:16:56 23° 61° (ENE) 12:20:55 437.025 USB, Beacon 2401.1428
Oscar 11 31 Oct 12:18:30 12:20:28 13° 301° (WNW) 12:22:26 145.825 FM, Beacon 2401.500 USB
ISS 31 Oct 12:24:38 12:27:51 43° 346° (NNW) 12:31:04 145.800 FM
SO-50 31 Oct 12:30:53 12:35:14 43° 315° (NW) 12:39:43 436.795 FM
FUNcube-1 31 Oct 12:34:35 12:37:23 18° 298° (WNW) 12:40:09 145.950 - 145.970 MHz USB
Uribyol 2 31 Oct 12:46:08 12:49:58 21° 60° (ENE) 12:53:49 436.500 FM
AO-Echo 31 Oct 12:47:37 12:51:38 24° 61° (ENE) 12:55:45 ?
ITAMSAT 1 31 Oct 12:53:52 12:57:54 23° 60° (ENE) 13:01:56 435.822 SSB
Oscar 19 31 Oct 13:03:46 13:08:47 58° 71° (ENE) 13:13:50 437.125 CW, 437.150 USB
AO-7 31 Oct 13:08:20 13:11:32 13° 34° (NE) 13:14:44 29.400 - 29.500 MHz
UOSAT-12 31 Oct 13:13:57 13:18:34 67° 123° (ESE) 13:23:16 437.025 FM, 437.400 FM
Sapphire 31 Oct 13:17:44 13:20:09 13° 257° (WSW) 13:22:34 437.095 MHz 1200 baud AX-25 AFSK
KITSAT 1 31 Oct 13:26:32 13:33:42 34° 326° (NW) 13:40:54 435.175 FM
JAS-1B 31 Oct 13:27:27 13:33:09 82° 73° (ENE) 13:38:58 435.800 - 435.900 CW/SSB
AO-27 31 Oct 13:40:10 13:45:15 54° 70° (ENE) 13:50:21 436.795 MHz FM
Saudisat 1A 31 Oct 13:45:40 13:49:57 45° 46° (NE) 13:54:13 436.775 MHz
Oscar 16 31 Oct 13:50:53 13:55:56 55° 259° (W) 14:01:00 437.025 USB, Beacon 2401.1428
Gurwin Techsat 1B 31 Oct 13:56:15 14:01:12 41° 67° (ENE) 14:06:10 435.225 FM
ISS 31 Oct 14:01:54 14:05:00 35° 6° (N) 14:08:07 145.800 FM
TMSAT-1 31 Oct 14:02:45 14:07:33 36° 66° (ENE) 14:12:22 436.925 FM
SO-50 31 Oct 14:14:48 14:17:02 13° 338° (NNW) 14:19:18 436.795 FM
Uribyol 2 31 Oct 14:23:49 14:28:59 64° 258° (WSW) 14:34:12 436.500 FM
AO-Echo 31 Oct 14:25:11 14:30:03 52° 261° (W) 14:35:08 ?
ITAMSAT 1 31 Oct 14:31:52 14:37:00 57° 259° (W) 14:42:11 435.822 SSB
Uosat F 31 Oct 14:40:59 14:43:30 14° 55° (NE) 14:46:02 435.120 FM
Oscar 19 31 Oct 14:44:46 14:48:31 20° 269° (W) 14:52:17 437.125 CW, 437.150 USB
AO-7 31 Oct 14:54:33 15:02:10 43° 58° (ENE) 15:09:49 29.400 - 29.500 MHz
UOSAT-12 31 Oct 14:55:17 14:59:09 25° 324° (NW) 15:03:04 437.025 FM, 437.400 FM
AO-27 31 Oct 15:21:03 15:25:05 22° 268° (W) 15:29:09 436.795 MHz FM
JAS-1B 31 Oct 15:21:56 15:24:47 14° 273° (W) 15:27:38 435.800 - 435.900 CW/SSB
Saudisat 1A 31 Oct 15:25:39 15:29:19 26° 245° (WSW) 15:32:57 436.775 MHz
KITSAT 1 31 Oct 15:26:28 15:31:59 19° 355° (N) 15:37:29 435.175 FM
Gurwin Techsat 1B 31 Oct 15:36:38 15:41:16 30° 265° (W) 15:45:56 435.225 FM
ISS 31 Oct 15:38:38 15:42:00 83° 26° (NNE) 15:45:20 145.800 FM
TMSAT-1 31 Oct 15:42:38 15:47:27 35° 264° (W) 15:52:19 436.925 FM
JAS-2 31 Oct 15:42:57 15:47:48 22° 53° (NE) 15:53:00 435.800 - 435.900 CW/SSB, 435.910 FM
Uosat F 31 Oct 16:16:29 16:21:32 85° 74° (ENE) 16:26:37 435.120 FM
AO-7 31 Oct 16:46:50 16:54:50 52° 259° (WSW) 17:02:54 29.400 - 29.500 MHz
ISS 31 Oct 17:15:57 17:18:20 18° 223° (SW) 17:20:43 145.800 FM
Hamsat 31 Oct 17:19:54 17:23:57 50° 72° (ENE) 17:28:00 145.90 MHz
KITSAT 1 31 Oct 17:24:04 17:30:38 26° 25° (NNE) 17:37:09 435.175 FM
JAS-2 31 Oct 17:25:23 17:31:47 89° 255° (WSW) 17:39:07 435.800 - 435.900 CW/SSB, 435.910 FM
SO-50 31 Oct 17:39:18 17:42:23 17° 28° (NNE) 17:45:30 436.795 FM
Oscar 10/S400 31 Oct 17:43:37 18:05:15 50° 179° (S) 00:15:27 145.825 - 145.975 CW/USB, Beacon 145.810 USB
Uosat F 31 Oct 17:58:37 18:00:59 13° 272° (W) 18:03:21 435.120 FM
SO-67 31 Oct 18:01:16 18:03:29 16° 65° (ENE) 18:05:43 435.3500 MHz FM
OPAL 31 Oct 18:22:09 18:27:07 75° 106° (ESE) 18:32:03 ?
UOSAT-12 31 Oct 18:23:16 18:23:25 10° 13° (NNE) 18:23:34 437.025 FM, 437.400 FM
STRAND 1 31 Oct 18:40:53 18:44:36 20° 91° (E) 18:48:18 ?
RS-15 31 Oct 18:56:48 18:59:42 11° 93° (E) 19:02:35 29.354 - 29.394 USB, Beacon 29.352 USB
Hamsat 31 Oct 18:57:30 19:00:11 17° 269° (W) 19:02:53 145.90 MHz
HO-68 31 Oct 18:57:53 19:02:57 21° 51° (NE) 19:08:02 435.675 MHz FM
JAS-2 31 Oct 19:13:49 19:18:01 18° 277° (W) 19:22:31 435.800 - 435.900 CW/SSB, 435.910 FM
SO-50 31 Oct 19:19:05 19:23:53 62° 49° (NE) 19:28:44 436.795 FM
KITSAT 1 31 Oct 19:19:34 19:27:39 68° 51° (NE) 19:35:40 435.175 FM
SO-67 31 Oct 19:33:01 19:36:12 35° 263° (W) 19:39:24 435.3500 MHz FM
UOSAT-12 31 Oct 20:01:19 20:05:15 25° 36° (NE) 20:09:09 437.025 FM, 437.400 FM
OPAL 31 Oct 20:02:14 20:05:27 18° 304° (NW) 20:08:40 ?
Oscar 11 31 Oct 20:05:38 20:06:55 11° 58° (ENE) 20:08:13 145.825 FM, Beacon 2401.500 USB
STRAND 1 31 Oct 20:19:07 20:24:12 60° 289° (WNW) 20:29:15 ?
HO-68 31 Oct 20:42:32 20:49:42 85° 71° (ENE) 20:56:57 435.675 MHz FM
RS-15 31 Oct 20:58:45 21:09:18 57° 115° (ESE) 21:19:50 29.354 - 29.394 USB, Beacon 29.352 USB
SO-50 31 Oct 21:00:26 21:04:04 21° 248° (WSW) 21:07:43 436.795 FM
UKube-1 31 Oct 21:03:41 21:07:48 43° 69° (ENE) 21:11:57 145.840 MHz, 145.915 MHz
ZACube-1 31 Oct 21:14:06 21:17:43 24° 65° (ENE) 21:21:18 437.345 MHz
KITSAT 1 31 Oct 21:15:35 21:22:32 33° 252° (WSW) 21:29:27 435.175 FM
Oscar 11 31 Oct 21:38:05 21:42:24 88° 77° (ENE) 21:46:45 145.825 FM, Beacon 2401.500 USB
UOSAT-12 31 Oct 21:41:07 21:45:49 66° 237° (WSW) 21:50:26 437.025 FM, 437.400 FM
FUNcube-1 31 Oct 21:55:52 22:00:18 60° 73° (ENE) 22:04:40 145.950 - 145.970 MHz USB
MaSat-1 31 Oct 21:57:14 22:00:49 40° 114° (ESE) 22:04:05 437.345 MHz
STRAND 1 31 Oct 22:01:45 22:02:21 10° 308° (NW) 22:02:57 ?
HO-68 31 Oct 22:33:15 22:38:17 20° 271° (W) 22:43:21 435.675 MHz FM
UKube-1 31 Oct 22:40:53 22:44:11 21° 267° (W) 22:47:30 145.840 MHz, 145.915 MHz
ZACube-1 31 Oct 22:49:41 22:53:56 40° 262° (W) 22:58:07 437.345 MHz
RS-15 31 Oct 23:11:10 23:21:49 54° 321° (NW) 23:32:35 29.354 - 29.394 USB, Beacon 29.352 USB
MaSat-1 31 Oct 23:33:37 23:36:18 19° 309° (NW) 23:38:47 437.345 MHz
FUNcube-1 31 Oct 23:34:19 23:37:03 16° 270° (W) 23:39:45 145.950 - 145.970 MHz USB
PCSat 01 Nov 00:58:38 01:00:53 13° 102° (ESE) 01:03:08 145.825 MHz
JAS-1B 01 Nov 01:06:56 01:12:23 22° 91° (E) 01:18:28 435.800 - 435.900 CW/SSB
Oscar 19 01 Nov 01:13:38 01:16:48 16° 89° (E) 01:19:57 437.125 CW, 437.150 USB
RS-15 01 Nov 01:27:54 01:37:16 31° 353° (N) 01:46:49 29.354 - 29.394 USB, Beacon 29.352 USB
AO-27 01 Nov 01:51:41 01:54:42 15° 89° (E) 01:57:42 436.795 MHz FM
Oscar 16 01 Nov 01:59:38 02:04:30 42° 98° (E) 02:09:20 437.025 USB, Beacon 2401.1428
Gurwin Techsat 1B 01 Nov 02:11:17 02:13:34 13° 86° (E) 02:15:50 435.225 FM
Sapphire 01 Nov 02:16:38 02:21:51 52° 116° (ESE) 02:27:06 437.095 MHz 1200 baud AX-25 AFSK
TMSAT-1 01 Nov 02:18:24 02:19:21 10° 85° (E) 02:20:18 436.925 FM
AO-Echo 01 Nov 02:29:19 02:34:25 44° 98° (E) 02:39:26 ?
Uribyol 2 01 Nov 02:33:49 02:38:38 37° 97° (E) 02:43:24 436.500 FM
PCSat 01 Nov 02:37:59 02:43:24 81° 121° (ESE) 02:48:51 145.825 MHz
ITAMSAT 1 01 Nov 02:41:53 02:46:49 41° 98° (E) 02:51:43 435.822 SSB
Oscar 19 01 Nov 02:51:34 02:56:41 72° 287° (WNW) 03:01:47 437.125 CW, 437.150 USB
JAS-1B 01 Nov 02:56:29 03:03:30 83° 287° (WNW) 03:11:56 435.800 - 435.900 CW/SSB
AO-27 01 Nov 03:29:35 03:34:50 78° 287° (WNW) 03:40:02 436.795 MHz FM
Oscar 16 01 Nov 03:39:19 03:43:41 29° 296° (WNW) 03:48:03 437.025 USB, Beacon 2401.1428
RS-15 01 Nov 03:43:17 03:53:30 40° 27° (NNE) 04:04:00 29.354 - 29.394 USB, Beacon 29.352 USB
Gurwin Techsat 1B 01 Nov 03:48:57 03:54:18 87° 105° (ESE) 03:59:38 435.225 FM
TMSAT-1 01 Nov 03:54:50 04:00:10 76° 103° (ESE) 04:05:28 436.925 FM
Sapphire 01 Nov 04:00:41 04:05:31 32° 316° (NW) 04:10:23 437.095 MHz 1200 baud AX-25 AFSK
OPAL 01 Nov 04:02:14 04:06:29 28° 61° (ENE) 04:10:43 ?
AO-Echo 01 Nov 04:08:25 04:13:00 30° 296° (WNW) 04:17:32 ?
Uribyol 2 01 Nov 04:13:25 04:18:03 33° 295° (WNW) 04:22:38 436.500 FM
ITAMSAT 1 01 Nov 04:21:39 04:26:11 30° 296° (WNW) 04:30:40 435.822 SSB
Uosat F 01 Nov 04:22:07 04:25:55 21° 92° (E) 04:29:42 435.120 FM
PCSat 01 Nov 04:23:09 04:27:27 23° 322° (NW) 04:31:47 145.825 MHz
Oscar 19 01 Nov 04:33:17 04:35:08 12° 306° (NW) 04:36:59 437.125 CW, 437.150 USB
JAS-2 01 Nov 04:33:24 04:37:44 16° 82° (E) 04:42:00 435.800 - 435.900 CW/SSB, 435.910 FM
AO-7 01 Nov 04:44:40 04:52:39 48° 100° (E) 05:00:37 29.400 - 29.500 MHz
JAS-1B 01 Nov 04:48:39 04:53:24 20° 305° (NW) 04:58:40 435.800 - 435.900 CW/SSB
AO-27 01 Nov 05:11:03 05:13:30 13° 306° (NW) 05:15:55 436.795 MHz FM
Gurwin Techsat 1B 01 Nov 05:30:24 05:33:34 16° 304° (WNW) 05:36:43 435.225 FM
Saudisat 1A 01 Nov 05:33:54 05:38:00 40° 119° (ESE) 05:42:08 436.775 MHz
TMSAT-1 01 Nov 05:35:57 05:39:30 18° 302° (WNW) 05:43:02 436.925 FM
OPAL 01 Nov 05:40:19 05:45:11 45° 259° (WSW) 05:50:01 ?
Sapphire 01 Nov 05:49:15 05:50:45 11° 341° (NNW) 05:52:16 437.095 MHz 1200 baud AX-25 AFSK
RS-15 01 Nov 05:56:08 06:07:19 89° 235° (SW) 06:18:59 29.354 - 29.394 USB, Beacon 29.352 USB
STRAND 1 01 Nov 05:59:15 06:03:59 38° 66° (ENE) 06:08:44 ?
Uosat F 01 Nov 06:00:06 06:05:03 55° 290° (WNW) 06:09:57 435.120 FM
JAS-2 01 Nov 06:16:11 06:24:05 71° 102° (ESE) 06:31:43 435.800 - 435.900 CW/SSB, 435.910 FM
AO-7 01 Nov 06:37:38 06:45:26 47° 301° (WNW) 06:53:16 29.400 - 29.500 MHz
Hamsat 01 Nov 06:38:10 06:42:24 71° 102° (ESE) 06:46:38 145.90 MHz
SO-67 01 Nov 06:54:31 06:56:03 12° 90° (E) 06:57:35 435.3500 MHz FM
Saudisat 1A 01 Nov 07:13:42 07:17:39 31° 319° (NW) 07:21:37 436.775 MHz
STRAND 1 01 Nov 07:38:41 07:43:13 31° 265° (W) 07:47:48 ?
MaSat-1 01 Nov 07:38:53 07:41:14 35° 246° (WSW) 07:43:26 437.345 MHz
